Location: Brede
(50.9167°N, 0.6000°E)
Time: 06:44:01
(UTC+00:00)

Explorer 7 - All Passes

Search period start: 27 November 2020 00:00
Search period end: 07 December 2020 00:00
Orbit: 484 x 678 km, 50.3° (Epoch: 26 November)

Date Brightness Start Highest point End Pass type
(mag) Time Alt. Az. Time Alt. Az. Time Alt. Az.
27 Nov - 02:47:22 10° SW 02:51:26 34° SSE 02:55:17 10° E visible
27 Nov - 04:27:20 10° WSW 04:31:41 75° S 04:35:47 10° E visible
27 Nov - 06:07:57 10° W 06:12:10 76° S 06:16:07 10° ESE visible
27 Nov - 07:48:41 10° W 07:52:20 32° SSW 07:55:49 10° SE daylight
28 Nov - 01:13:37 10° S 01:16:06 15° SE 01:18:32 10° ESE night (unlit)
28 Nov - 02:51:40 10° SW 02:55:58 45° SSE 03:00:01 10° E visible
28 Nov - 04:31:57 10° W 04:36:19 82° S 04:40:25 10° E visible
28 Nov - 06:12:36 10° W 06:16:47 66° SSW 06:20:42 10° ESE visible
28 Nov - 07:53:31 10° W 07:56:47 24° SW 07:59:55 10° SSE daylight
29 Nov - 01:17:05 10° S 01:20:30 21° SE 01:23:47 10° E night (unlit)
29 Nov - 02:56:06 10° WSW 03:00:31 57° SSE 03:04:41 10° E visible
29 Nov - 04:36:36 10° W 04:40:58 84° S 04:45:04 10° E visible
29 Nov - 06:17:16 10° W 06:21:22 53° SSW 06:25:13 10° SE visible
29 Nov - 07:58:34 10° W 08:01:10 17° SW 08:03:43 10° S daylight
30 Nov - 01:20:59 10° SSW 01:24:56 28° SSE 01:28:43 10° E night (unlit)
30 Nov - 03:00:38 10° WSW 03:05:07 69° SSE 03:09:20 10° E visible
30 Nov - 04:41:15 10° W 04:45:37 81° S 04:49:41 10° E visible
30 Nov - 06:21:56 10° W 06:25:55 41° SSW 06:29:38 10° SE visible
30 Nov - 08:04:15 10° WSW 08:05:30 11° SW 08:06:45 10° SSW daylight
30 Nov - 23:48:14 10° SSE 23:49:42 11° SE 23:51:08 10° ESE night (unlit)
01 Dec - 01:25:08 10° SW 01:29:25 38° SSE 01:33:29 10° E night (unlit)
01 Dec - 03:05:13 10° WSW 03:09:44 78° S 03:13:58 10° E visible
01 Dec - 04:45:53 10° W 04:50:14 74° SSW 04:54:18 10° ESE visible
01 Dec - 06:26:41 10° W 06:30:23 31° SSW 06:33:54 10° SSE visible
01 Dec - 23:51:03 10° S 23:54:02 17° SE 23:56:56 10° E night (unlit)
02 Dec - 01:29:28 10° SW 01:33:57 49° SSE 01:38:10 10° E night (unlit)
02 Dec - 03:09:51 10° W 03:14:22 83° S 03:18:36 10° E visible
02 Dec - 04:50:32 10° W 04:54:50 63° SSW 04:58:52 10° ESE visible
02 Dec - 06:31:32 10° W 06:34:48 22° SW 06:37:56 10° SSE visible
02 Dec - 23:54:41 10° SSW 23:58:25 24° SE 00:02:02 10° E night (unlit)
03 Dec - 01:33:56 10° WSW 01:38:30 61° SSE 01:42:50 10° E night (unlit)
03 Dec - 03:14:29 10° W 03:19:00 84° S 03:23:13 10° E visible
03 Dec - 04:55:11 10° W 04:59:24 51° SSW 05:03:21 10° SE visible
03 Dec - 06:36:39 10° W 06:39:10 16° SW 06:41:37 10° S visible
03 Dec - 23:58:40 10° SSW 00:02:52 32° SSE 00:06:52 10° E night (unlit)
04 Dec - 01:38:28 10° WSW 01:43:07 72° SSE 01:47:28 10° E night (unlit)
04 Dec - 03:19:07 10° W 03:23:38 80° S 03:27:51 10° E visible
04 Dec - 04:59:52 10° W 05:03:55 39° SSW 05:07:43 10° SE visible
04 Dec - 06:42:41 10° WSW 06:43:28 10° SW 06:44:14 10° SW visible
04 Dec - 22:25:19 10° SSE 22:27:34 13° SE 22:29:47 10° ESE night (unlit)
05 Dec - 00:02:53 10° SW 00:07:21 42° SSE 00:11:36 10° E night (unlit)
05 Dec - 01:43:04 10° WSW 01:47:43 80° S 01:52:05 10° E night (unlit)
05 Dec - 03:23:45 10° W 03:28:15 72° SSW 03:32:26 10° ESE visible
05 Dec - 05:04:36 10° W 05:08:22 29° SSW 05:11:55 10° SSE visible
05 Dec - 22:28:32 10° S 22:31:54 19° SE 22:35:11 10° E night (unlit)
06 Dec - 00:07:14 10° SW 00:11:52 53° SSE 00:16:16 10° E night (unlit)
06 Dec - 01:47:41 10° W 01:52:20 84° S 01:56:43 10° E night (unlit)
06 Dec - 03:28:23 10° W 03:32:49 61° SSW 03:36:58 10° ESE visible
06 Dec - 05:09:29 10° W 05:12:46 21° SW 05:15:53 10° SSE visible
06 Dec - 22:32:17 10° SSW 22:36:17 26° SE 22:40:10 10° E night (unlit)
